Elmira, NY

11:24 AM EDT on June 26, 2017 (GMT -0400)
Elmira-Corning Regional

Weather History for KELM - June, 2013

Change the Weather History Date:

Tuesday, June 11, 2013

  Actual Average Record
Temperature  
Mean Temperature 65 °F -  
Max Temperature 73 °F 78 °F 98 °F (1933)
Min Temperature 57 °F 49 °F 33 °F (1972)
Growing Degree Days 15 (Base 50)    
Moisture  
Dew Point 59 °F    
Average Humidity 83    
Maximum Humidity 100    
Minimum Humidity 64    
Precipitation  
Precipitation 0.10 in - - ()
Sea Level Pressure  
Sea Level Pressure 29.72 in    
Wind  
Wind Speed 4 mph (West)    
Max Wind Speed 18 mph    
Max Gust Speed 30 mph    
Visibility 7 miles    
Events Fog , Rain    
Averages and records for this station are not official NWS values.
T = Trace of Precipitation, MM = Missing Value Source: NWS Daily Summary

Daily Weather History Graph

Daily Weather History Graph

Search for Another Location

Airport or City:

Trip Planner

Search our weather history database for the weather conditions in past years. The results will help you decide how hot, cold, wet, or windy it might be!

Date:

Astronomy

Jun. 11, 2013 Rise Set
Actual Time 5:31 AM EDT 8:43 PM EDT
Civil Twilight 4:56 AM EDT 9:18 PM EDT
Nautical Twilight 4:12 AM EDT 10:02 PM EDT
Astronomical Twilight 3:18 AM EDT 10:56 PM EDT
Moon 8:14 AM EDT (6/11) 10:42 PM EDT (6/11)
Length of Visible Light 16h 21m
Length of Day
15h 12m
Waxing Crescent, 8% of the Moon is Illuminated
Jun 11
Waxing Crescent
Jun 16
First Quarter
Jun 23
Full
Jun 30
Last Quarter
Jul 8
New

Hourly Weather History & Observations

Time (EDT) Temp. Dew Point Humidity Pressure Visibility Wind Dir Wind Speed Gust Speed Precip Events Conditions
12:43 AM 64.4 °F 60.8 °F 88% 29.75 in 10.0 mi Calm Calm - 0.05 in Rain Light Rain
12:53 AM 64.9 °F 61.0 °F 87% 29.74 in 10.0 mi South 3.5 mph - 0.05 in Rain Light Rain
1:02 AM 64.4 °F 60.8 °F 88% 29.75 in 10.0 mi Calm Calm - 0.00 in   Overcast
1:53 AM 64.9 °F 62.1 °F 90% 29.72 in 10.0 mi NE 3.5 mph - 0.00 in   Overcast
2:53 AM 64.0 °F 62.1 °F 93% 29.71 in 10.0 mi Calm Calm - 0.00 in   Overcast
3:20 AM 62.6 °F 60.8 °F 94% 29.71 in 8.0 mi Calm Calm - N/A   Mostly Cloudy
3:32 AM 62.6 °F 60.8 °F 94% 29.71 in 1.5 mi Calm Calm - N/A   Scattered Clouds
3:36 AM 62.6 °F 60.8 °F 94% 29.71 in 0.8 mi Calm Calm - N/A   Scattered Clouds
3:46 AM 60.8 °F 59.0 °F 94% 29.71 in 0.2 mi Calm Calm - N/A Fog Fog
3:53 AM 60.1 °F 59.0 °F 96% 29.70 in 0.2 mi Calm Calm - N/A Fog Fog
4:09 AM 60.8 °F 59.0 °F 94% 29.71 in 0.2 mi SW 4.6 mph - N/A Fog Fog
4:53 AM 60.1 °F 57.9 °F 93% 29.70 in 0.2 mi Calm Calm - N/A Fog Fog
5:02 AM 57.2 °F 57.2 °F 100% 29.70 in 0.5 mi Calm Calm - N/A Fog Fog
5:31 AM 59.0 °F 57.2 °F 94% 29.70 in 1.0 mi Calm Calm - N/A   Mist
5:44 AM 59.0 °F 57.2 °F 94% 29.71 in 0.2 mi Calm Calm - N/A Fog Fog
5:51 AM 57.2 °F 55.4 °F 94% 29.71 in 0.1 mi Calm Calm - N/A Fog Fog
5:53 AM 57.9 °F 55.9 °F 93% 29.70 in 0.1 mi Calm Calm - N/A Fog Fog
6:15 AM 60.8 °F 59.0 °F 94% 29.71 in 0.2 mi Calm Calm - N/A Fog Fog
6:39 AM 62.6 °F 60.8 °F 94% 29.71 in 0.5 mi Calm Calm - N/A Fog Fog
6:51 AM 60.8 °F 60.8 °F 100% 29.71 in 1.5 mi Calm Calm - N/A   Overcast
6:53 AM 62.1 °F 60.1 °F 93% 29.70 in 7.0 mi Calm Calm - N/A   Overcast
7:00 AM 62.6 °F 60.8 °F 94% 29.71 in 8.0 mi WSW 3.5 mph - N/A   Overcast
7:53 AM 64.9 °F 62.1 °F 90% 29.68 in 10.0 mi West 3.5 mph - N/A   Mostly Cloudy
8:38 AM 66.2 °F 62.6 °F 88% 29.69 in 10.0 mi West 6.9 mph - N/A   Overcast
8:53 AM 66.9 °F 61.0 °F 81% 29.68 in 10.0 mi West 5.8 mph - N/A   Overcast
9:53 AM 66.9 °F 62.1 °F 84% 29.67 in 6.0 mi WSW 9.2 mph - 0.03 in Rain Light Rain
10:53 AM 66.9 °F 63.0 °F 87% 29.67 in 10.0 mi WSW 11.5 mph - 0.02 in   Overcast
11:53 AM 70.0 °F 62.1 °F 76% 29.67 in 10.0 mi West 10.4 mph - N/A   Overcast
12:13 PM 69.8 °F 60.8 °F 73% 29.69 in 10.0 mi West 15.0 mph 24.2 mph N/A   Overcast
12:53 PM 69.1 °F 60.1 °F 73% 29.69 in 10.0 mi West 16.1 mph 23.0 mph N/A   Overcast
1:02 PM 71.6 °F 60.8 °F 69% 29.70 in 10.0 mi West 17.3 mph 24.2 mph N/A   Mostly Cloudy
1:53 PM 70.0 °F 59.0 °F 68% 29.70 in 10.0 mi West 18.4 mph 29.9 mph N/A   Mostly Cloudy
2:41 PM 71.6 °F 60.8 °F 69% 29.71 in 10.0 mi West 16.1 mph 23.0 mph N/A   Mostly Cloudy
2:53 PM 73.0 °F 60.1 °F 64% 29.69 in 10.0 mi WNW 16.1 mph 23.0 mph N/A   Scattered Clouds
3:53 PM 70.0 °F 57.9 °F 65% 29.72 in 10.0 mi WNW 15.0 mph 20.7 mph N/A   Overcast
4:53 PM 69.1 °F 57.9 °F 68% 29.73 in 10.0 mi West 16.1 mph 20.7 mph 0.00 in   Overcast
5:53 PM 68.0 °F 57.9 °F 70% 29.73 in 10.0 mi West 8.1 mph - N/A   Overcast
6:53 PM 68.0 °F 57.0 °F 68% 29.74 in 10.0 mi NW 8.1 mph - N/A   Overcast
7:53 PM 66.9 °F 55.9 °F 68% 29.76 in 10.0 mi WNW 6.9 mph - N/A   Overcast
8:53 PM 66.9 °F 55.9 °F 68% 29.76 in 10.0 mi West 5.8 mph - N/A   Overcast
9:53 PM 66.9 °F 57.0 °F 70% 29.78 in 10.0 mi West 8.1 mph - N/A   Overcast
10:53 PM 66.9 °F 57.0 °F 70% 29.78 in 10.0 mi WNW 4.6 mph - N/A   Overcast
11:05 PM 66.2 °F 57.2 °F 73% 29.80 in 10.0 mi NW 5.8 mph - N/A   Overcast
11:26 PM 66.2 °F 57.2 °F 73% 29.80 in 10.0 mi Variable 3.5 mph - N/A   Overcast
11:53 PM 66.0 °F 55.9 °F 70% 29.79 in 10.0 mi WNW 5.8 mph - N/A   Overcast